[[{"header":{"parameterUnit":"m.s-1","parameterCategory":1,"la1":30.2991,"la2":30.254,"lo1":-89.0895,"lo2":-89.0444,"dy":0.0017,"dx":0.0017,"nx":28,"ny":28,"refTime":"2025-12-01T09:00:00:Z","depth":0,"parameterNumber":2,"parameterNumberName":"U-component_of_WINDS"},"data":[0,0,0,0,0,0,0,0,0,0,0,0,0,0,0,0,0,0,0,0,0,0,0,0,0,0,0,0,0,0,0,0,0,0,0,0,0,0,0,0,0,0,0,0,0,0,0,0,0,0,0,0,0,0,0,0,0,0,3.943,3.943,0,3.9464,3.9465,3.9465,3.9403,3.9401,3.9399,3.9397,3.9429,3.9432,3.9434,0,0,0,0,0,0,0,0,0,0,0,0,0,3.9307,3.931,3.943,3.943,3.9431,3.9464,3.9465,3.9465,3.9403,3.9401,3.9398,3.9396,3.9428,3.9431,3.9435,0,0,0,0,0,0,0,0,0,0,0,0,0,3.9353,3.9311,3.943,3.9404,3.9402,3.9464,3.9465,3.9465,3.9404,3.9401,3.9398,3.9395,3.9427,3.9431,3.9435,3.9523,0,0,3.9448,3.945,0,0,0,0,0,0,0,0,3.9351,3.9358,3.9407,3.9406,3.9404,3.9426,3.9433,3.9485,3.9405,3.9403,3.9397,3.9393,3.943,3.9434,3.9447,3.9525,3.9526,3.9448,3.9451,3.9452,3.9454,0,0,0,0,0,0,0,3.9347,3.9356,3.9443,3.9408,3.9406,3.939,3.9393,3.9443,3.9434,3.9403,3.9398,3.9404,3.9429,3.9443,3.9447,3.9526,3.9448,3.9452,3.9454,3.9456,3.9679,3.9682,0,0,0,0,0,0,3.9348,3.9354,3.9442,3.9444,3.9369,3.9394,3.9398,3.9422,3.9433,3.9432,3.9406,3.9401,3.9438,3.9443,3.9448,3.9553,3.9452,3.9456,3.9459,3.9675,3.9679,3.9683,0,0,0,0,0,0,3.9346,3.9356,3.9441,3.9398,3.9407,3.94,3.9428,3.9424,3.9439,3.9435,3.9433,3.9423,3.9435,3.9442,3.9505,3.9553,3.9458,3.9462,3.9671,3.9677,3.9681,3.9762,0,0,0,0,0,0,3.9342,3.9356,3.939,3.9399,3.941,3.9498,3.9431,3.9427,3.9447,3.944,3.9451,3.9449,3.9434,3.95,3.951,3.9557,3.9465,3.9667,3.9674,3.968,3.9755,3.9769,3.9782,0,0,0,0,0,3.9338,3.941,3.9392,3.9403,3.9452,3.9501,3.9507,3.9489,3.9451,3.9485,3.9483,3.9449,3.9546,3.9507,3.9517,3.9567,3.9664,3.9672,3.9679,3.9749,3.9767,3.9781,0,0,0,0,0,0,3.9405,3.9411,3.9391,3.9468,3.9485,3.9491,3.9532,3.9507,3.9534,3.9526,3.9501,3.9504,3.9572,3.9575,3.9531,3.9653,3.9599,3.9609,3.9648,3.9665,3.9678,3.9675,3.9469,0,0,0,0,0,3.9429,3.9469,3.9472,3.954,3.955,3.954,3.956,3.9545,3.9561,3.9567,3.9569,3.9585,3.9619,3.9642,3.9673,3.9756,3.9757,3.9795,3.9808,3.9819,3.9828,3.9872,3.9889,3.9708,3.9708,3.9708,0,0,3.9478,3.9487,3.9513,3.9554,3.9565,3.9606,3.9546,3.9592,3.9623,3.9573,3.9634,3.9636,3.9652,3.9726,3.9758,3.973,3.9878,3.9829,3.9837,3.984,3.9882,3.9899,3.9914,3.9714,3.9713,3.9712,0,0,3.959,3.9601,3.9659,3.9672,3.969,3.9684,3.9698,3.9708,3.9708,3.9769,3.9733,3.9768,3.9827,3.984,3.9855,3.9973,3.9944,3.9984,4.0053,4.0096,4.0111,4.0123,4.0166,4.0181,3.9993,3.9993,3.9993,0,3.9649,3.9711,3.9692,3.9741,3.976,3.9719,3.9778,3.9791,3.9818,3.9831,3.9801,3.9875,3.9883,3.9959,3.9988,4.0001,4.0016,3.9982,4.011,4.0123,4.0134,4.0174,4.019,3.9998,3.9998,3.9997,3.9997,0,3.9783,3.9827,3.9871,3.9901,3.9924,3.9978,3.9966,3.9992,3.9975,3.9972,4.0034,4.0042,4.0075,4.0092,4.0074,4.0166,4.0148,4.0115,4.0059,4.0156,4.0194,4.0209,4.0005,4.0003,4.0002,4.0001,0,0,3.9936,3.9955,3.9972,3.9985,4.0003,4.0036,4.0088,4.0122,4.0145,4.0165,4.0208,4.026,4.0229,4.0246,4.023,4.0268,4.0362,4.023,4.023,4.0254,4.0464,4.0489,4.0507,4.0343,4.0346,4.0348,4.0462,0,4.0047,4.0138,4.0123,4.0211,4.0251,4.0214,4.0259,4.0275,4.0274,4.0307,4.0304,4.0342,4.0298,4.0308,4.0345,4.0343,4.0404,4.0335,4.0382,4.0384,4.0379,4.0527,4.0553,4.0661,4.0477,4.0479,4.0481,0,4.0188,4.0216,4.0309,4.0322,4.0338,4.038,4.0409,4.0442,4.0459,4.0455,4.0475,4.0452,4.0503,4.0448,4.0518,4.0472,4.049,4.0493,4.0496,4.05,4.0438,4.0534,4.0695,4.0711,4.0504,4.0502,4.05,0,4.0291,4.0352,4.0415,4.0428,4.0444,4.0474,4.0482,4.0497,4.0518,4.0544,4.0557,4.0589,4.0605,4.063,4.0616,4.0577,4.0689,4.0632,4.0686,4.0687,4.0711,4.071,4.0877,4.0724,4.0723,4.0723,4.0723,0,4.0417,4.0475,4.0462,4.0501,4.0565,4.0547,4.0611,4.0614,4.0627,4.0666,4.0635,4.0671,4.0651,4.0686,4.0675,4.0735,4.0743,4.0741,4.0737,4.0744,4.0744,4.0755,4.0747,4.0727,4.0726,4.0725,4.0725,0,4.0542,4.0536,4.0603,4.0614,4.0618,4.0665,4.0674,4.071,4.0707,4.0756,4.0767,4.0761,4.0801,4.079,4.0832,4.0825,4.0901,4.0888,4.0896,4.0893,4.0948,4.0943,4.1128,4.1151,4.0983,4.0985,4.0986,0,4.0623,4.0667,4.0684,4.0708,4.0719,4.0759,4.0781,4.0765,4.0789,4.0813,4.0847,4.0884,4.0913,4.0978,4.0977,4.1009,4.0997,4.1059,4.1001,4.1007,4.0998,4.0995,4.1,4.1071,4.1073,4.1074,4.1076,0,4.0767,4.0762,4.0796,4.083,4.0858,4.0883,4.0905,4.0927,4.0912,4.0941,4.0982,4.1005,4.1049,4.1087,4.1117,4.1124,4.1098,4.1094,4.1108,4.1115,4.1118,4.1118,4.0928,4.109,4.1088,4.1087,4.1086,4.1086,4.0872,4.091,4.0928,4.0968,4.0983,4.1005,4.104,4.1042,4.1077,4.1113,4.1101,4.1148,4.1164,4.1202,4.1214,4.1249,4.1225,4.1246,4.1251,4.1257,4.1264,4.1113,4.1255,4.1254,4.1254,4.1254,4.1253,0,4.1014,4.1025,4.1061,4.1094,4.1126,4.11,4.1124,4.1151,4.1193,4.1212,4.1241,4.1289,4.1325,4.1328,4.1362,4.1391,4.138,4.14,4.1398,4.14,4.1283,4.1268,4.1409,4.1409,4.1409,4.1409,4.1409,4.1409,4.1092,4.1155,4.1153,4.1224,4.1233,4.128,4.1296,4.1316,4.1331,4.1386,4.1417,4.1419,4.1431,4.1466,4.1498,4.1498,4.1512,4.1537,4.1533,4.1423,4.1408,4.1393,4.1378,4.1541,4.1541,4.1646,4.1647,4.1648]},{"header":{"parameterUnit":"m.s-1","parameterCategory":1,"la1":30.2991,"la2":30.254,"lo1":-89.0895,"lo2":-89.0444,"dy":0.0017,"dx":0.0017,"nx":28,"ny":28,"refTime":"2025-12-01T09:00:00:Z","depth":0,"parameterNumber":3,"parameterNumberName":"V-component_of_WINDS"},"data":[0,0,0,0,0,0,0,0,0,0,0,0,0,0,0,0,0,0,0,0,0,0,0,0,0,0,0,0,0,0,0,0,0,0,0,0,0,0,0,0,0,0,0,0,0,0,0,0,0,0,0,0,0,0,0,0,0,0,-5.3266,-5.3268,0,-5.3458,-5.3461,-5.3463,-5.3452,-5.3449,-5.3447,-5.3444,-5.3642,-5.365,-5.3658,0,0,0,0,0,0,0,0,0,0,0,0,0,-5.2892,-5.2899,-5.3266,-5.3268,-5.3271,-5.3458,-5.3461,-5.3463,-5.3453,-5.3449,-5.3446,-5.3443,-5.364,-5.3649,-5.3658,0,0,0,0,0,0,0,0,0,0,0,0,0,-5.3067,-5.2901,-5.3265,-5.3288,-5.3292,-5.3457,-5.3461,-5.3464,-5.3453,-5.3449,-5.3445,-5.3441,-5.3637,-5.3648,-5.366,-5.3816,0,0,-5.3696,-5.3701,0,0,0,0,0,0,0,0,-5.3057,-5.308,-5.3282,-5.3287,-5.3291,-5.3427,-5.3402,-5.3582,-5.3454,-5.3392,-5.3444,-5.3439,-5.3574,-5.3591,-5.3636,-5.3825,-5.3834,-5.3697,-5.3704,-5.3709,-5.3712,0,0,0,0,0,0,0,-5.3045,-5.3072,-5.3342,-5.3285,-5.3291,-5.3289,-5.331,-5.3436,-5.3504,-5.3397,-5.3397,-5.342,-5.3576,-5.3625,-5.3641,-5.3837,-5.3697,-5.3707,-5.3714,-5.3719,-5.4167,-5.4171,0,0,0,0,0,0,-5.3027,-5.3062,-5.3336,-5.3348,-5.3161,-5.3299,-5.3322,-5.3388,-5.3503,-5.3516,-5.3423,-5.3419,-5.3607,-5.3627,-5.3648,-5.384,-5.3709,-5.372,-5.3727,-5.4162,-5.4168,-5.4173,0,0,0,0,0,0,-5.3019,-5.3052,-5.3328,-5.3205,-5.324,-5.331,-5.3384,-5.3394,-5.3443,-5.3522,-5.3535,-5.346,-5.3604,-5.3631,-5.3775,-5.3847,-5.3725,-5.3736,-5.4156,-5.4164,-5.417,-5.4225,0,0,0,0,0,0,-5.3009,-5.3049,-5.3108,-5.3206,-5.3247,-5.3452,-5.3389,-5.34,-5.3463,-5.3459,-5.3561,-5.3573,-5.3603,-5.3757,-5.3786,-5.3861,-5.3745,-5.415,-5.4159,-5.4168,-5.4218,-5.4234,-5.4247,0,0,0,0,0,-5.2995,-5.3116,-5.3111,-5.3144,-5.3322,-5.3456,-5.3479,-5.351,-5.3468,-5.353,-5.3581,-5.357,-5.3834,-5.3772,-5.3805,-5.3884,-5.4146,-5.4157,-5.4167,-5.4211,-5.4231,-5.4247,0,0,0,0,0,0,-5.3025,-5.3129,-5.3125,-5.3281,-5.336,-5.3454,-5.3531,-5.3529,-5.3622,-5.3614,-5.3649,-5.3672,-5.3817,-5.3864,-5.3794,-5.4043,-5.3985,-5.4002,-5.4006,-5.4026,-5.404,-5.4027,-5.3755,0,0,0,0,0,-5.3049,-5.3148,-5.3234,-5.3363,-5.3403,-5.346,-5.352,-5.3537,-5.362,-5.3653,-5.3715,-5.3797,-5.3898,-5.3964,-5.4062,-5.4224,-5.4247,-5.4295,-5.431,-5.4321,-5.4337,-5.4429,-5.4452,-5.4208,-5.4208,-5.4208,0,0,-5.3101,-5.317,-5.3231,-5.3371,-5.3434,-5.3537,-5.3488,-5.3599,-5.3676,-5.367,-5.381,-5.3859,-5.3952,-5.4106,-5.4177,-5.4151,-5.441,-5.4335,-5.4344,-5.4354,-5.4443,-5.4466,-5.4486,-5.4216,-5.4214,-5.4213,0,0,-5.3249,-5.331,-5.3426,-5.349,-5.3586,-5.3623,-5.3651,-5.3746,-5.3778,-5.3919,-5.3918,-5.401,-5.4184,-5.4251,-5.4308,-5.4483,-5.4478,-5.4514,-5.4593,-5.4682,-5.4701,-5.4718,-5.4783,-5.4806,-5.4529,-5.4529,-5.4529,0,-5.3301,-5.3456,-5.3485,-5.3598,-5.366,-5.3659,-5.3778,-5.3839,-5.3962,-5.4006,-5.3974,-5.4193,-5.4256,-5.4427,-5.447,-5.4515,-5.455,-5.4503,-5.4696,-5.4713,-5.473,-5.4792,-5.4816,-5.4533,-5.4532,-5.4532,-5.4532,0,-5.3517,-5.3624,-5.3706,-5.3826,-5.3897,-5.4012,-5.406,-5.413,-5.4141,-5.4182,-5.4327,-5.4402,-5.4517,-5.4558,-5.457,-5.4732,-5.4713,-5.4688,-5.4631,-5.4757,-5.4816,-5.484,-5.4539,-5.4537,-5.4536,-5.4535,0,0,-5.3689,-5.3824,-5.3854,-5.3909,-5.4015,-5.4099,-5.4215,-5.4326,-5.4386,-5.4471,-5.457,-5.4718,-5.4696,-5.4761,-5.478,-5.4858,-5.4995,-5.4824,-5.4827,-5.4855,-5.5182,-5.5201,-5.5228,-5.4991,-5.4996,-5.5,-5.5175,0,-5.3849,-5.4053,-5.4084,-5.4265,-5.4366,-5.4367,-5.4468,-5.4545,-5.4587,-5.4679,-5.4725,-5.4831,-5.4793,-5.4832,-5.4909,-5.4962,-5.5062,-5.495,-5.5086,-5.509,-5.5065,-5.5259,-5.528,-5.5441,-5.5198,-5.5202,-5.5205,0,-5.4064,-5.4155,-5.4346,-5.4441,-5.4484,-5.4574,-5.468,-5.4768,-5.4856,-5.4881,-5.4954,-5.4964,-5.5086,-5.5022,-5.5191,-5.5114,-5.5171,-5.5206,-5.5213,-5.5229,-5.5156,-5.5282,-5.5493,-5.5519,-5.5241,-5.5238,-5.5235,0,-5.4173,-5.4344,-5.4481,-5.4527,-5.4641,-5.4704,-5.4755,-5.4838,-5.4904,-5.4997,-5.504,-5.5145,-5.5204,-5.5286,-5.5325,-5.5274,-5.5492,-5.5431,-5.5518,-5.5518,-5.5566,-5.5562,-5.5792,-5.5599,-5.5598,-5.5598,-5.5597,0,-5.4351,-5.4468,-5.4532,-5.4616,-5.4748,-5.4783,-5.4913,-5.4961,-5.5036,-5.5131,-5.5138,-5.5227,-5.5272,-5.5369,-5.54,-5.5537,-5.5562,-5.5587,-5.5595,-5.5588,-5.5585,-5.5628,-5.5619,-5.5604,-5.5603,-5.5602,-5.5601,0,-5.4496,-5.4543,-5.4693,-5.4788,-5.4814,-5.4908,-5.499,-5.5073,-5.5114,-5.5234,-5.5265,-5.533,-5.5444,-5.5491,-5.5631,-5.5652,-5.581,-5.5807,-5.578,-5.5783,-5.5869,-5.5861,-5.6135,-5.6174,-5.5953,-5.5955,-5.5957,0,-5.4607,-5.4697,-5.4802,-5.4866,-5.4919,-5.5021,-5.5089,-5.5127,-5.5197,-5.5305,-5.5375,-5.5489,-5.5582,-5.5765,-5.5826,-5.5933,-5.5935,-5.6023,-5.5951,-5.5942,-5.5939,-5.5934,-5.5945,-5.6037,-5.6039,-5.6041,-5.6043,0,-5.48,-5.4819,-5.4916,-5.5022,-5.5102,-5.5187,-5.527,-5.5322,-5.5373,-5.5452,-5.5568,-5.5641,-5.5784,-5.5898,-5.6009,-5.6062,-5.6062,-5.6065,-5.6091,-5.6087,-5.6068,-5.6082,-5.5819,-5.6059,-5.6057,-5.6056,-5.6055,-5.6054,-5.4934,-5.5015,-5.5102,-5.521,-5.5277,-5.5355,-5.5438,-5.549,-5.5588,-5.5707,-5.5724,-5.5849,-5.5937,-5.6086,-5.6144,-5.6243,-5.6221,-5.6258,-5.6268,-5.6278,-5.6285,-5.6051,-5.6263,-5.6263,-5.6262,-5.6262,-5.6262,0,-5.513,-5.5186,-5.5285,-5.5401,-5.5487,-5.5478,-5.557,-5.5643,-5.5753,-5.5834,-5.5926,-5.6062,-5.6172,-5.6242,-5.6354,-5.6421,-5.6424,-5.6449,-5.6446,-5.6459,-5.6297,-5.6264,-5.6445,-5.6445,-5.6445,-5.6445,-5.6445,-5.6445,-5.5242,-5.538,-5.541,-5.5581,-5.5637,-5.576,-5.5814,-5.5886,-5.5951,-5.6102,-5.6194,-5.6239,-5.6317,-5.6435,-5.6536,-5.6554,-5.6596,-5.6624,-5.664,-5.6489,-5.647,-5.6452,-5.6421,-5.6632,-5.6632,-5.6794,-5.6796,-5.6797]}]]